Gainesville, FL

10:11 PM EST on November 23, 2017 (GMT -0500)
Gainesville Regional

Weather History for KGNV - April, 2014

Change the Weather History Date:

Sunday, April 20, 2014

  Actual Average Record
Temperature  
Mean Temperature 61 °F 68 °F  
Max Temperature 65 °F 81 °F 94 °F (1892)
Min Temperature 56 °F 56 °F 41 °F (1936)
Degree Days  
Heating Degree Days 4 1  
Month to date heating degree days 19 35  
Since 1 July heating degree days 1092 1206  
Cooling Degree Days 0 4  
Month to date cooling degree days 63 67  
Year to date cooling degree days 125 153  
Growing Degree Days 10 (Base 50)    
Moisture  
Dew Point 55 °F    
Average Humidity 86    
Maximum Humidity 100    
Minimum Humidity 72    
Precipitation  
Precipitation 0.00 in 0.08 in 1.37 in (1893)
Month to date precipitation 1.37 1.89  
Year to date precipitation 16.44 12.73  
Snow  
Snow 0.00 in 0.00 in 0.00 in ()
Month to date snowfall 0.0 0.0  
Since 1 July snowfall 0.0 0.0  
Snow Depth 0.00 in    
Sea Level Pressure  
Sea Level Pressure 30.06 in    
Wind  
Wind Speed 8 mph (North)    
Max Wind Speed 16 mph    
Max Gust Speed 19 mph    
Visibility 9 miles    
Events      
T = Trace of Precipitation, MM = Missing Value Source: NWS Daily Summary

Daily Weather History Graph

Daily Weather History Graph

Search for Another Location

Airport or City:

Trip Planner

Search our weather history database for the weather conditions in past years. The results will help you decide how hot, cold, wet, or windy it might be!

Date:

Astronomy

Apr. 20, 2014 Rise Set
Actual Time 6:57 AM EDT 7:59 PM EDT
Civil Twilight 6:32 AM EDT 8:23 PM EDT
Nautical Twilight 6:03 AM EDT 8:53 PM EDT
Astronomical Twilight 5:33 AM EDT 9:23 PM EDT
Moon 12:28 AM EDT (4/20) 11:24 AM EDT (4/20)
Length of Visible Light 13h 51m
Length of Day
13h 01m
Waning Gibbous, 69% of the Moon is Illuminated
Apr 20
Waning Gibbous
Apr 22
Last Quarter
Apr 29
New
May 6
First Quarter
May 14
Full

Hourly Weather History & Observations

Time (EDT) Temp. Dew Point Humidity Pressure Visibility Wind Dir Wind Speed Gust Speed Precip Events Conditions
12:53 AM 59.0 °F 57.9 °F 96% 30.01 in 9.0 mi NNW 4.6 mph - N/A   Overcast
1:53 AM 59.0 °F 57.9 °F 96% 30.00 in 5.0 mi North 8.1 mph - N/A   Overcast
2:29 AM 59.0 °F 57.0 °F 93% 30.00 in 10.0 mi North 5.8 mph - N/A   Overcast
2:53 AM 59.0 °F 57.0 °F 93% 29.99 in 10.0 mi North 9.2 mph - N/A   Overcast
3:22 AM 59.0 °F 57.0 °F 93% 30.00 in 8.0 mi North 5.8 mph - N/A   Overcast
3:53 AM 57.9 °F 57.0 °F 97% 30.00 in 5.0 mi North 6.9 mph - N/A   Overcast
4:20 AM 57.9 °F 57.0 °F 97% 30.01 in 3.0 mi North 5.8 mph - N/A   Overcast
4:27 AM 57.9 °F 57.0 °F 97% 30.01 in 3.0 mi North 8.1 mph - N/A   Overcast
4:35 AM 57.9 °F 57.0 °F 97% 30.01 in 2.5 mi North 6.9 mph - N/A   Overcast
4:53 AM 57.9 °F 57.0 °F 97% 30.01 in 5.0 mi North 5.8 mph - N/A   Overcast
5:00 AM 57.9 °F 57.0 °F 97% 30.02 in 5.0 mi North 6.9 mph - N/A   Overcast
5:09 AM 57.9 °F 57.0 °F 97% 30.02 in 7.0 mi NNW 5.8 mph - N/A   Overcast
5:53 AM 57.0 °F 55.9 °F 96% 30.03 in 10.0 mi North 9.2 mph - N/A   Overcast
6:53 AM 55.9 °F 55.0 °F 97% 30.04 in 10.0 mi North 8.1 mph - N/A   Overcast
7:20 AM 55.9 °F 55.0 °F 97% 30.05 in 10.0 mi North 4.6 mph - N/A   Overcast
7:29 AM 55.9 °F 55.0 °F 97% 30.06 in 10.0 mi North 5.8 mph - N/A   Overcast
7:53 AM 55.9 °F 55.0 °F 97% 30.06 in 6.0 mi North 6.9 mph - N/A   Overcast
8:41 AM 57.0 °F 53.1 °F 87% 30.09 in 10.0 mi North 10.4 mph - N/A   Overcast
8:53 AM 57.0 °F 53.1 °F 87% 30.09 in 10.0 mi North 9.2 mph - N/A   Mostly Cloudy
9:53 AM 60.1 °F 54.0 °F 80% 30.10 in 10.0 mi North 8.1 mph - N/A   Overcast
10:53 AM 59.0 °F 53.1 °F 81% 30.12 in 10.0 mi North 10.4 mph - N/A   Overcast
11:53 AM 60.1 °F 53.1 °F 78% 30.12 in 10.0 mi NNW 9.2 mph - N/A   Overcast
12:53 PM 61.0 °F 54.0 °F 78% 30.11 in 10.0 mi NNE 9.2 mph - N/A   Overcast
1:29 PM 61.0 °F 54.0 °F 78% 30.11 in 10.0 mi North 8.1 mph - N/A   Overcast
1:53 PM 63.0 °F 55.0 °F 75% 30.10 in 10.0 mi NNE 8.1 mph - N/A   Overcast
2:53 PM 64.0 °F 55.0 °F 73% 30.09 in 10.0 mi North 9.2 mph - N/A   Overcast
3:53 PM 64.0 °F 55.9 °F 75% 30.07 in 10.0 mi North 6.9 mph - N/A   Overcast
4:53 PM 64.0 °F 55.0 °F 73% 30.07 in 10.0 mi North 12.7 mph - N/A   Overcast
5:53 PM 62.1 °F 54.0 °F 75% 30.08 in 10.0 mi North 9.2 mph - N/A   Overcast
6:53 PM 61.0 °F 54.0 °F 78% 30.08 in 10.0 mi North 9.2 mph - N/A   Overcast
7:53 PM 61.0 °F 54.0 °F 78% 30.10 in 10.0 mi NNE 5.8 mph - N/A   Overcast
8:53 PM 60.1 °F 54.0 °F 80% 30.11 in 10.0 mi NNE 6.9 mph - N/A   Overcast
9:53 PM 59.0 °F 55.0 °F 87% 30.13 in 10.0 mi NNW 5.8 mph - N/A   Overcast
10:09 PM 59.0 °F 55.0 °F 87% 30.13 in 10.0 mi NW 3.5 mph - N/A   Overcast
10:53 PM 59.0 °F 55.0 °F 87% 30.12 in 10.0 mi NNW 3.5 mph - N/A   Overcast
11:53 PM 57.9 °F 55.0 °F 90% 30.12 in 10.0 mi Calm Calm - N/A   Overcast